Regional Weather Roundup
Issued by NWS

Home | Current Version | Previous Version | Graphics & Text | Print | Product List | Glossary On
Versions: 1 2 3 4 5 6 7 8 9 10 11 12 13 14 15 16 17 18 19 20 21 22 23 24 25 26 27 28 29 30 31 32 33 34 35 36 37 38 39 40 41 42 43 44 45 46 47 48 49 50
000
ASUS43 KLSX 061910
RWRMO

WEATHER SUMMARY FOR MISSOURI
NATIONAL WEATHER SERVICE SPRINGFIELD MO
100 PM CST TUE DEC 06 2016

NOTE: "FAIR" INDICATES FEW OR NO CLOUDS BELOW 12,000 FEET WITH NO
       SIGNIFICANT WEATHER AND/OR OBSTRUCTIONS TO VISIBILITY.
       CURRENT SKY AND/OR WEATHER CONDITIONS ARE NOT AVAILABLE FOR
       CHILLICOTHE AND FARMINGTON.

MOZ001>031-035>038-043-044-053-054-062000-
...NORTHERN AND WESTERN MISSOURI...

CITY           SKY/WX    TMP DP  RH WIND       PRES   REMARKS
KANSAS CTY INT FAIR      36  14  40 NW14G21   30.04F WCI  27
LEE`S SUMMIT   FAIR      37  15  40 NW15      30.04F WCI  28
ST JOSEPH      FAIR      35  16  45 NW18      30.05F WCI  24
CHILLICOTHE      N/A     37  17  44 NW9G21    30.02S

$$
MOZ066>068-077>081-088>096-101>105-062000-
...SOUTHWEST MISSOURI...

CITY           SKY/WX    TMP DP  RH WIND       PRES   REMARKS
SPRINGFIELD    FAIR      42  27  55 N15       30.00S
JOPLIN         FAIR      41  25  53 NW10      30.05F
BRANSON        CLOUDY    41  36  81 N10       30.00S

$$
MOZ032>034-039>042-045>050-055>058-069>072-062000-
...CENTRAL MISSOURI...

CITY           SKY/WX    TMP DP  RH WIND       PRES   REMARKS
COLUMBIA       NOT AVBL
JEFFERSON CITY FAIR      41  27  57 W13G22    29.99S
ROLLA          CLOUDY    37  35  92 NW9       29.95S
SEDALIA        FAIR      39  20  46 NW14G22   30.02

$$
MOZ051-052-059>065-062000-
...EAST CENTRAL MISSOURI...

CITY           SKY/WX    TMP DP  RH WIND       PRES   REMARKS
ST LOUIS INTL  CLOUDY    42  34  73 W12       29.92R

$$
MOZ072>076-082>087-097>100-106>115-062000-
...SOUTH CENTRAL AND SOUTHEAST MISSOURI...

CITY           SKY/WX    TMP DP  RH WIND       PRES   REMARKS
CAPE GIRARDEAU NOT AVBL
POPLAR BLUFF   FAIR      53  39  59 NW13      29.89S
WEST PLAINS    CLOUDY    39  36  89 N9        29.97R

$$




USA.gov is the U.S. government's official web portal to all federal, state and local government web resources and services.